Temperature
16 16 15 15 15 15 15 15 15 15 15 15 15 15 14 14 14 14 14 14 14 14 14 14 14 13 14 14 14 14 14 14 15 14 14 14 14 13 13 13 13 13 14
15 15 15 15 15 15 15 15 15 15 15 15 15 14 14 14 14 14 14 14 14 14 13 13 14 13 13 13 13 14 14 14 14 14 14 14 14 13 13 13 13 13 13
15 15 15 15 15 15 15 15 15 15 15 15 14 14 14 14 14 14 14 14 13 13 13 13 13 13 13 13 13 13 13 14 13 14 14 14 13 13 13 13 13 13 13
15 15 15 15 15 15 15 15 15 15 14 14 14 14 14 14 13 13 13 13 13 13 13 13 13 13 13 13 13 13 13 13 13 13 14 14 13 13 13 13 13 13 13
15 15 14 14 15 14 14 14 14 14 14 14 14 14 14 13 13 13 13 13 13 13 13 13 13 13 13 13 13 13 13 13 13 13 13 13 13 13 13 13 13 13 13
15 15 14 14 14 14 14 14 14 13 14 13 13 13 13 13 13 13 13 13 13 13 13 13 13 13 13 13 13 13 13 13 13 13 13 13 13 13 13 13 13 13 13
14 14 14 14 13 13 13 13 13 13 13 13 13 13 13 13 13 13 13 13 13 13 13 13 13 13 13 13 13 13 13 13 12 12 12 12 12 12 12 12 12 12 12
14 14 13 13 13 13 13 13 13 13 13 13 13 13 13 13 13 13 13 13 12 12 12 12 12 12 12 12 12 12 12 12 12 12 12 12 12 12 12 12 12 12 12
13 13 13 13 13 13 13 13 12 12 12 12 12 12 12 12 13 13 13 12 12 12 12 12 12 12 12 12 12 12 12 12 12 12 12 12 12 12 12 11 12 12 12
13 13 13 13 13 12 12 12 12 12 12 12 12 12 12 12 12 12 12 12 12 12 12 12 12 12 12 12 12 12 12 12 12 12 12 12 12 12 12 12 11 12 12
12 12 12 12 12 12 12 12 12 12 12 12 12 12 12 12 12 12 12 12 12 12 12 12 12 12 12 12 12 11 12 12 12 12 12 12 12 12 11 11 11 11 11
12 12 12 12 12 12 12 11 11 11 11 11 11 11 11 11 11 11 11 11 11 11 11 11 11 12 12 12 11 11 11 11 11 11 11 11 11 11 11 11 11 11 11
11 11 11 11 11 11 11 11 11 11 11 11 11 11 11 11 11 11 11 11 11 11 11 11 11 11 11 11 11 11 11 11 11 11 11 11 11 11 11 11 11 11 11
11 11 11 11 11 11 11 11 11 11 11 11 11 11 11 11 10 11 10 10 10 10 10 11 11 11 11 11 11 11 11 10 10 11 11 11 11 11 11 11 11 11 11
11 10 11 11 11 11 11 11 11 11 11 11 11 11 11 11 10 10 10 10 10 10 10 10 10 10 10 10 10 10 10 10 10 10 10 10 10 10 10 10 10 11 11
10 10 10 11 11 11 11 10 10 10 10 10 10 10 10 10 10 10 10 10 10 10 10 10 10 10 10 10 10 10 10 10 10 10 10 10 10 10 10 10 10 10 11
10 10 10 11 11 11 10 10 10 10 10 10 10 10 10 10 10 10 10 10 10 10 10 10 10 10 10 10 10 10 10 10 10 10 10 10 10 10 10 10 10 10 10
10 10 10 10 11 11 10 10 10 10 10 10 10 10 10 10 10 10 9 9 9 10 9 10 10 10 10 9 10 10 9 9 9 9 9 9 10 10 10 10 10 10 10
10 10 10 10 10 11 11 10 10 10 10 10 10 10 10 9 9 9 9 9 9 9 9 9 9 9 9 9 9 9 9 9 9 9 9 9 9 10 10 10 10 10 10
10 10 10 10 10 10 10 10 10 10 10 10 10 10 9 9 9 9 9 9 9 9 9 9 9 9 9 9 9 9 9 9 9 9 9 9 9 9 9 9 9 9 9
10 10 10 10 10 10 10 10 10 10 10 10 10 9 9 9 9 9 9 9 8 8 8 9 9 9 9 9 9 9 9 9 9 9 9 9 9 9 9 9 9 9 9
10 10 10 10 10 10 10 10 10 10 10 10 9 9 9 9 9 9 9 8 8 8 8 8 8 8 8 8 8 9 9 9 9 8 8 9 8 8 9 9 9 9 9
10 10 10 10 10 10 9 10 10 9 9 9 9 9 9 9 8 8 8 8 8 8 8 8 8 8 8 8 8 8 8 8 8 8 8 8 8 8 8 8 8 8 9
9 10 10 10 9 9 9 9 9 9 9 9 9 9 9 8 8 8 8 8 8 7 7 7 7 7 7 7 7 7 7 7 7 7 7 7 8 8 8 8 8 8 8
9 9 9 9 9 9 9 9 9 9 9 9 9 8 8 8 8 8 8 7 7 7 7 7 7 7 7 7 7 7 7 7 7 7 7 7 7 7 7 7 7 8 8
9 9 9 9 9 9 9 9 8 8 8 8 8 8 8 8 8 7 7 7 7 7 6 6 6 6 6 6 6 6 6 6 6 7 6 6 6 7 7 7 7 7 7
Wind_Speed
6 6 6 6 7 7 6 5 5 5 5 5 5 5 5 5 5 5 5 5 6 5 4 4 4 4 4 4 4 5 5 5 5 4 3 3 3 4 3 4 4 6 6
6 6 6 6 6 6 6 6 5 5 5 5 5 5 5 6 6 6 6 6 6 6 5 5 5 5 5 5 5 5 5 5 6 6 4 4 4 4 4 5 4 4 4
6 6 5 6 6 5 6 6 5 5 4 5 5 5 5 6 6 6 6 6 6 6 6 6 6 6 6 5 6 6 5 5 6 6 5 3 4 4 4 5 4 4 5
4 5 5 5 5 5 5 5 5 5 5 5 5 5 5 5 6 6 6 6 6 6 6 6 6 6 6 6 6 6 6 6 6 6 5 5 4 4 4 5 4 4 4
4 4 4 4 4 5 5 5 5 5 5 5 5 5 5 5 5 5 6 6 6 6 6 6 6 5 5 5 6 6 6 6 6 6 5 5 4 4 4 4 4 3 3
3 3 2 2 3 4 4 4 5 5 4 5 5 5 5 4 1 2 5 6 6 6 6 6 6 6 6 7 7 6 6 7 7 6 6 5 5 5 4 5 5 4 4
2 2 2 3 3 4 4 4 4 4 4 5 5 5 5 4 2 4 5 6 6 5 5 5 5 4 5 6 7 8 7 8 8 8 8 7 6 5 5 6 5 5 5
2 2 2 3 3 3 4 4 3 3 4 4 4 5 5 4 4 4 6 7 6 6 6 6 5 4 4 5 5 6 6 7 7 8 7 7 7 5 6 6 6 6 6
2 3 3 3 3 3 3 3 3 3 4 4 4 4 5 4 4 5 6 6 5 6 6 5 5 5 3 4 5 5 5 5 4 4 5 5 4 5 6 6 6 6 6
2 3 3 3 3 4 3 3 3 3 4 4 3 4 4 4 4 5 6 5 5 5 5 5 4 4 3 4 6 5 5 4 4 4 5 6 7 7 9 9 8 7 6
2 2 2 3 3 4 3 3 3 3 3 3 3 3 3 3 4 4 6 5 5 5 4 4 3 4 4 5 6 6 4 4 5 5 5 5 5 6 7 8 7 7 7
2 2 2 2 3 3 3 3 3 3 3 3 3 3 3 3 2 3 5 6 5 4 4 3 2 4 5 6 5 4 4 6 5 5 5 5 5 5 5 6 6 7 7
3 2 2 2 2 3 3 3 3 3 3 3 3 3 2 2 2 4 5 6 6 5 3 2 3 4 5 6 7 7 7 5 5 5 4 4 4 4 5 5 5 6 7
3 2 3 3 3 2 2 3 3 3 3 3 3 3 2 2 2 2 2 3 5 4 3 3 5 6 6 4 5 6 5 4 4 5 4 3 3 4 5 5 5 6 6
3 3 3 3 2 2 2 2 2 2 2 3 3 3 3 3 2 2 3 2 3 2 2 3 3 3 3 3 3 3 3 3 4 4 4 4 4 4 4 4 5 5 6
3 3 3 3 2 2 3 2 2 1 3 2 1 3 1 1 0 1 2 2 2 2 2 2 3 3 3 3 3 3 3 4 4 4 4 4 4 4 4 4 4 5 6
3 3 3 3 2 2 3 3 2 3 4 4 3 3 2 1 1 1 2 2 2 3 3 3 3 3 3 3 3 3 3 3 4 4 5 4 5 5 5 4 4 5 5
4 4 4 3 3 3 3 3 3 2 2 2 3 4 3 3 2 2 2 2 1 2 3 3 3 3 3 3 3 3 3 3 4 4 5 5 5 5 5 5 5 5 5
4 3 3 3 3 3 3 3 2 2 2 2 1 2 3 3 4 3 3 2 1 2 2 3 3 3 3 3 4 4 4 4 4 4 4 5 5 5 5 5 5 5 6
4 3 4 4 4 3 3 3 2 2 2 2 2 1 1 1 1 1 1 2 2 2 3 3 3 3 4 4 4 4 4 4 4 4 4 4 4 4 5 6 6 5 5
4 4 6 5 4 3 3 3 3 2 2 2 2 1 1 2 2 2 2 2 3 3 3 4 4 4 4 4 4 5 5 4 4 4 5 4 4 5 5 5 5 5 5
3 3 4 4 3 3 3 3 3 2 2 2 2 2 4 3 2 2 2 3 3 4 4 4 4 4 4 4 5 5 5 5 5 5 5 5 4 5 5 5 4 4 4
3 3 2 2 2 3 3 3 2 2 2 2 2 1 1 2 3 3 3 3 3 3 3 3 3 4 4 4 5 5 5 5 5 5 5 5 4 4 4 4 4 4 4
1 1 2 2 2 2 2 2 2 2 2 2 2 1 1 2 2 3 3 3 3 2 2 3 3 4 5 4 4 5 5 5 7 6 6 5 5 4 4 4 5 5 4
0 0 1 2 2 2 2 2 2 2 2 2 2 2 2 2 2 3 3 3 3 3 3 3 3 4 5 5 5 5 5 6 6 6 6 5 4 5 5 4 4 4 4
1 1 1 2 2 2 2 2 2 2 2 2 2 2 3 3 3 3 3 3 3 3 4 3 4 5 5 4 5 5 4 4 5 7 6 4 4 4 5 5 5 5 4
Wind_Direction
184 186 188 188 194 196 197 200 200 203 200 209 213 212 208 208 209 213 219 212 215 220 222 219 227 246 246 244 242 244 247 251 253 255 247 228 231 255 241 246 233 228 206
181 180 182 189 192 193 197 200 199 199 202 205 213 214 210 209 210 212 215 215 215 217 221 221 226 229 236 247 248 247 246 251 251 254 252 238 227 236 238 251 247 238 234
176 176 180 191 194 194 200 198 196 197 206 213 213 219 219 215 211 211 214 216 217 222 226 229 231 234 237 241 245 247 243 239 243 248 251 247 241 237 238 239 243 246 243
170 175 179 189 194 197 199 197 197 199 205 216 220 221 223 222 219 216 216 219 223 229 233 236 238 236 238 241 237 240 244 246 240 245 248 245 243 235 242 242 240 232 245
170 175 183 186 187 190 196 202 203 206 208 213 222 225 222 221 226 229 224 223 226 231 235 240 240 236 244 250 249 239 237 240 238 239 243 246 246 242 247 251 254 249 246
172 182 184 194 197 195 201 205 207 212 216 216 223 224 226 229 192 257 259 239 230 231 237 241 240 229 225 230 244 249 251 243 247 250 250 252 254 253 259 258 259 253 257
185 194 201 207 211 207 209 211 216 219 219 224 227 227 228 226 198 222 250 251 239 237 240 244 250 242 233 241 222 220 233 239 244 254 258 260 256 251 252 253 254 265 274
188 201 213 214 223 212 208 212 219 221 223 230 233 233 229 220 198 223 245 242 241 238 236 237 242 248 252 258 244 235 236 233 231 236 249 257 258 257 247 253 257 255 256
207 215 218 213 224 214 218 220 224 221 223 230 231 230 231 225 201 220 246 241 237 238 234 232 236 236 224 255 247 243 240 242 224 214 238 247 256 245 245 247 247 250 258
226 222 219 214 222 222 220 228 229 226 227 232 236 239 238 239 203 215 240 242 235 237 228 218 212 236 213 223 241 242 240 246 250 236 229 231 233 230 224 236 249 255 261
234 229 216 215 226 227 220 224 227 228 225 229 234 243 242 240 202 203 233 242 244 244 240 235 212 174 207 227 248 251 252 258 253 248 242 238 233 231 229 229 241 252 260
226 223 224 227 233 217 210 218 220 224 220 219 221 238 240 232 220 203 218 238 272 253 250 253 232 173 208 226 235 240 250 249 250 251 248 245 244 240 236 237 236 244 255
228 224 228 239 235 216 215 217 214 218 229 235 229 231 234 230 197 196 210 229 259 265 265 258 249 223 226 229 214 217 229 243 245 244 247 253 254 254 246 235 231 229 238
224 228 234 233 217 202 224 223 226 222 227 238 247 245 243 234 228 223 227 231 239 247 253 213 210 221 230 235 223 220 231 239 244 248 251 260 264 251 242 241 236 231 238
223 225 233 227 211 204 214 227 224 219 233 249 255 253 251 246 254 283 267 255 262 270 265 245 233 222 225 223 230 229 230 235 240 249 251 250 250 248 248 241 241 242 247
226 227 225 221 208 215 208 200 147 181 151 175 285 280 260 351 287 232 252 275 272 248 244 236 238 237 240 241 238 239 242 242 243 241 244 246 249 252 251 245 243 245 249
233 236 234 229 218 221 224 225 214 188 169 184 207 225 245 254 215 227 246 248 222 207 226 242 252 254 252 256 257 254 252 250 250 249 248 249 249 249 248 246 245 250 254
239 228 228 233 232 227 227 230 229 225 216 212 195 190 203 199 207 215 225 220 219 207 247 256 262 268 268 267 265 265 263 261 256 255 252 252 249 248 248 246 246 251 255
241 236 230 232 227 224 228 231 229 225 227 223 209 169 187 190 194 205 205 238 266 270 274 285 288 289 286 276 272 268 267 264 263 259 258 253 250 250 251 251 250 244 251
229 214 234 233 224 222 228 235 235 230 223 212 217 221 144 176 206 172 214 267 277 281 281 283 285 286 284 281 275 270 265 262 262 262 259 255 255 256 255 255 255 251 247
236 209 204 231 228 226 233 235 237 237 229 225 227 129 137 237 240 236 246 262 275 283 288 286 282 277 274 275 276 273 270 267 265 269 269 259 252 251 253 256 257 257 256
241 236 226 230 232 221 230 239 241 241 240 241 247 164 158 238 267 267 252 260 270 276 284 286 288 287 281 276 277 280 277 274 272 270 272 270 264 259 257 256 256 260 260
239 240 238 229 226 205 223 238 241 242 246 252 260 273 217 274 289 294 296 293 290 289 291 294 296 303 308 297 292 291 296 297 288 283 280 274 266 262 263 262 260 262 262
239 241 235 234 236 240 240 245 246 251 257 262 268 275 281 273 279 291 294 297 299 295 292 294 300 307 313 311 303 296 299 309 307 295 288 282 276 269 263 260 259 255 253
277 299 253 240 242 244 248 254 257 258 264 268 271 273 279 283 288 293 295 302 306 309 313 308 305 304 306 306 308 313 340 341 323 309 290 277 275 277 273 266 262 264 260
291 287 272 257 243 239 238 251 262 262 257 256 263 274 281 285 289 294 295 300 301 301 304 310 315 314 314 312 322 345 357 341 324 314 300 286 279 277 279 272 267 261 259
Height
1493 1494 1496 1497 1499 1500 1502 1503 1505 1506 1507 1508 1509 1510 1510 1511 1511 1512 1513 1514 1514 1515 1515 1515 1516 1516 1517 1518 1519 1519 1519 1519 1519 1519 1519 1518 1518 1518 1518 1517 1517 1517 1517
1491 1492 1493 1495 1497 1498 1499 1501 1502 1503 1504 1505 1506 1507 1508 1508 1509 1510 1510 1511 1512 1512 1512 1513 1513 1514 1514 1514 1515 1515 1515 1516 1516 1516 1516 1516 1515 1515 1515 1514 1515 1516 1515
1490 1491 1492 1493 1494 1495 1497 1498 1500 1501 1502 1503 1503 1504 1505 1506 1506 1507 1508 1509 1509 1509 1510 1510 1510 1510 1510 1511 1511 1512 1512 1513 1513 1513 1513 1513 1513 1513 1512 1512 1512 1512 1512
1488 1489 1490 1491 1492 1493 1495 1496 1497 1498 1499 1500 1501 1501 1502 1503 1504 1505 1505 1506 1506 1506 1507 1507 1507 1507 1507 1507 1507 1508 1509 1509 1510 1510 1510 1510 1510 1509 1510 1510 1510 1510 1510
1487 1488 1489 1489 1490 1491 1492 1494 1495 1496 1497 1497 1498 1498 1499 1500 1501 1502 1502 1503 1503 1503 1503 1503 1503 1503 1503 1503 1504 1505 1505 1506 1506 1507 1507 1507 1507 1507 1507 1507 1507 1507 1507
1485 1486 1487 1488 1489 1489 1490 1491 1492 1493 1494 1495 1495 1495 1496 1497 1497 1497 1498 1499 1499 1499 1499 1500 1500 1499 1499 1499 1499 1500 1501 1502 1503 1503 1504 1504 1503 1504 1504 1504 1504 1504 1504
1484 1485 1485 1486 1487 1488 1488 1489 1489 1490 1491 1491 1492 1492 1493 1493 1493 1494 1494 1495 1495 1495 1495 1495 1496 1496 1495 1495 1495 1496 1497 1497 1498 1499 1500 1500 1500 1500 1500 1501 1501 1501 1500
1482 1483 1483 1484 1485 1485 1486 1486 1487 1487 1488 1488 1489 1489 1490 1490 1490 1490 1491 1491 1491 1491 1491 1491 1491 1491 1492 1492 1492 1492 1493 1493 1494 1494 1495 1495 1496 1496 1496 1497 1497 1497 1496
1480 1480 1481 1481 1482 1482 1483 1483 1484 1484 1484 1485 1486 1486 1486 1486 1486 1486 1487 1487 1487 1487 1488 1488 1488 1488 1488 1488 1488 1489 1489 1489 1490 1490 1490 1490 1491 1491 1492 1493 1493 1494 1493
1477 1477 1478 1478 1479 1479 1480 1480 1481 1481 1481 1482 1482 1482 1482 1482 1482 1482 1483 1483 1483 1484 1484 1484 1484 1484 1485 1484 1485 1485 1485 1485 1486 1486 1486 1486 1487 1487 1487 1488 1490 1490 1490
1475 1475 1475 1476 1476 1477 1477 1477 1478 1478 1478 1478 1479 1479 1478 1478 1478 1478 1479 1479 1480 1480 1480 1480 1480 1480 1481 1481 1481 1481 1481 1481 1481 1482 1482 1483 1483 1483 1483 1484 1485 1486 1487
1472 1472 1473 1474 1474 1474 1474 1474 1475 1475 1475 1475 1475 1475 1476 1475 1475 1475 1475 1475 1476 1476 1476 1476 1476 1476 1477 1477 1478 1477 1478 1478 1479 1479 1479 1479 1479 1480 1480 1480 1480 1481 1481
1470 1470 1470 1471 1471 1471 1471 1472 1472 1472 1473 1473 1473 1473 1473 1473 1472 1472 1472 1472 1472 1472 1472 1472 1472 1472 1473 1473 1474 1474 1474 1475 1475 1475 1476 1476 1476 1476 1476 1476 1476 1476 1476
1467 1468 1468 1469 1469 1469 1469 1469 1469 1469 1469 1470 1470 1470 1470 1470 1470 1469 1469 1469 1469 1469 1469 1469 1468 1468 1469 1469 1470 1470 1470 1471 1471 1472 1472 1472 1473 1473 1473 1472 1473 1473 1473
1465 1466 1466 1467 1467 1467 1467 1467 1467 1467 1467 1467 1467 1468 1467 1467 1467 1466 1466 1466 1466 1466 1466 1466 1466 1466 1466 1466 1467 1467 1467 1467 1468 1468 1469 1469 1469 1470 1469 1469 1469 1469 1469
1463 1464 1464 1465 1465 1465 1465 1465 1464 1464 1464 1464 1464 1465 1464 1464 1464 1464 1463 1464 1463 1463 1464 1464 1463 1464 1464 1464 1464 1464 1464 1464 1465 1465 1465 1466 1466 1466 1466 1466 1465 1465 1465
1461 1462 1462 1463 1463 1463 1463 1463 1462 1462 1461 1461 1462 1462 1462 1461 1461 1461 1461 1461 1461 1461 1462 1462 1462 1462 1462 1462 1462 1461 1462 1462 1462 1462 1462 1463 1463 1463 1462 1462 1462 1462 1461
1459 1459 1459 1460 1461 1461 1461 1461 1460 1460 1460 1460 1460 1459 1460 1459 1459 1459 1459 1459 1459 1459 1459 1460 1460 1460 1460 1459 1459 1459 1459 1459 1459 1459 1459 1459 1459 1459 1459 1458 1458 1458 1458
1458 1458 1458 1459 1459 1459 1459 1459 1458 1458 1458 1458 1458 1458 1458 1458 1458 1458 1458 1458 1458 1458 1458 1458 1458 1458 1458 1458 1457 1457 1457 1457 1456 1456 1456 1455 1456 1456 1455 1455 1455 1455 1455
1455 1455 1456 1457 1457 1457 1457 1457 1457 1457 1457 1457 1457 1457 1456 1457 1457 1457 1456 1457 1457 1456 1456 1456 1456 1456 1456 1456 1455 1455 1454 1454 1453 1453 1453 1453 1453 1452 1452 1452 1452 1452 1452
1453 1453 1454 1454 1455 1455 1455 1455 1456 1455 1455 1455 1456 1456 1455 1455 1456 1456 1455 1455 1455 1455 1455 1455 1454 1454 1453 1453 1453 1452 1452 1451 1451 1450 1450 1450 1450 1449 1449 1449 1449 1449 1449
1451 1451 1452 1452 1452 1453 1453 1454 1454 1454 1454 1455 1455 1455 1454 1455 1455 1455 1455 1454 1454 1454 1453 1453 1453 1452 1451 1450 1450 1450 1449 1448 1448 1447 1447 1446 1446 1446 1447 1447 1447 1446 1446
1448 1449 1449 1450 1450 1451 1451 1452 1452 1452 1452 1453 1453 1453 1453 1453 1454 1454 1453 1453 1453 1452 1451 1451 1450 1449 1448 1448 1447 1446 1445 1445 1444 1443 1443 1443 1443 1443 1443 1443 1443 1443 1443
1446 1447 1447 1448 1448 1449 1449 1450 1450 1450 1450 1451 1451 1452 1452 1452 1452 1452 1451 1451 1451 1450 1449 1448 1448 1447 1445 1444 1444 1442 1441 1441 1440 1440 1439 1439 1440 1440 1439 1439 1439 1439 1439
1445 1446 1446 1446 1447 1447 1448 1448 1448 1449 1449 1449 1449 1450 1450 1450 1450 1450 1450 1449 1449 1448 1447 1446 1445 1444 1443 1442 1440 1439 1438 1436 1436 1436 1436 1436 1436 1436 1436 1436 1436 1437 1437
1445 1445 1445 1445 1446 1446 1446 1446 1447 1447 1447 1447 1447 1448 1448 1448 1448 1448 1447 1447 1446 1446 1445 1443 1442 1441 1440 1439 1437 1436 1434 1433 1432 1432 1432 1432 1433 1433 1433 1433 1434 1434 1434